Lid_Strength_Index
15 19 21 19 19 19 19 20 21 19 17 17 18 18 16 14 16 16 16 16 15 14 13 13 12 13 12 12 12 12 12 12 11 12 12 12 12 11 9 9 7 7 7 6
19 21 18 16 16 17 18 23 23 18 17 18 19 18 16 16 16 16 16 16 15 15 15 13 13 13 12 12 12 12 12 12 12 12 12 12 11 10 10 9 8 7 7 6
20 17 15 16 17 18 19 22 23 20 18 19 20 21 19 17 16 16 16 16 16 15 15 14 13 12 13 13 13 12 12 12 12 12 12 12 11 11 10 9 9 8 7 6
19 15 16 17 18 18 23 18 17 19 24 27 19 26 20 19 17 16 15 16 16 16 15 13 13 13 13 13 13 13 13 13 12 12 12 12 12 12 11 10 9 8 7 7
19 17 17 19 17 17 19 17 18 20 27 24 25 28 21 19 18 17 16 15 16 15 15 13 13 13 13 13 14 14 14 13 13 13 12 13 13 11 10 9 9 8 7 6
19 16 17 17 16 16 17 20 21 23 29 30 28 27 23 20 20 18 17 16 15 15 14 13 13 13 14 14 15 15 14 14 14 14 13 13 12 11 11 10 9 9 7 7
19 18 16 16 17 16 18 26 29 29 31 28 32 27 21 19 18 17 16 15 15 15 14 14 15 15 15 14 14 14 14 15 14 14 14 13 13 12 11 10 9 8 8 7
26 24 21 15 17 21 20 24 27 32 30 29 30 27 21 18 17 17 16 16 15 15 14 15 15 15 15 15 15 15 15 15 15 15 14 14 12 11 10 9 9 8 8 6
25 24 17 15 15 18 22 25 21 30 34 32 29 25 19 17 20 18 17 16 16 15 15 15 15 15 16 16 16 16 15 15 15 15 14 14 13 10 10 9 8 7 6 4
20 24 21 17 15 17 21 18 25 28 31 33 30 33 22 22 23 21 20 20 17 16 16 16 16 16 17 17 17 16 15 15 15 15 14 13 12 11 10 9 8 7 6 4
21 24 23 17 21 21 20 25 25 25 25 30 32 26 22 22 23 23 21 19 19 18 17 17 18 18 18 17 18 17 16 16 15 14 14 13 11 11 10 9 7 7 6 5
17 21 26 22 18 17 19 23 21 25 28 28 26 24 18 23 27 29 22 19 18 18 18 19 20 19 19 19 19 18 16 16 14 14 13 12 12 10 10 9 7 6 6 5
16 24 27 22 20 18 21 19 19 22 21 27 27 22 22 28 26 23 23 20 18 19 19 23 20 21 20 21 20 19 17 15 14 13 13 12 12 11 10 8 7 6 7 6
13 19 22 22 21 24 22 20 18 19 25 22 21 18 15 14 15 15 18 21 21 20 22 25 23 24 22 23 22 20 18 16 14 14 13 13 12 11 10 8 8 7 8 8
15 22 20 20 20 23 20 21 18 20 20 22 18 20 16 15 15 14 21 21 19 20 21 25 26 26 26 25 23 20 18 17 15 15 14 13 12 11 10 9 8 8 9 9
16 24 24 27 19 19 22 19 18 18 18 19 18 19 14 14 15 19 19 22 21 20 22 24 26 26 25 26 24 22 20 18 17 17 14 13 12 11 11 10 10 10 10 10
17 22 25 26 23 25 24 20 19 21 21 20 23 17 15 17 19 22 21 25 21 20 22 24 25 26 28 27 26 23 21 18 17 18 15 13 13 13 12 11 11 11 10 10
18 20 20 26 28 29 19 17 18 19 18 20 19 17 17 21 22 20 18 20 20 22 24 23 27 28 28 30 27 25 21 19 17 16 15 14 14 14 13 12 12 11 11 11
14 16 20 25 33 23 18 18 19 19 17 16 17 16 17 20 18 16 19 22 21 22 22 24 27 27 29 27 26 25 21 19 17 17 16 14 14 14 14 14 14 13 14 13
14 13 16 29 30 29 18 17 16 16 20 16 16 16 17 17 20 18 18 17 17 17 18 18 18 19 20 20 19 19 21 21 18 17 15 15 14 14 14 14 14 13 13 13
23 20 19 28 25 24 17 15 15 21 17 15 15 15 16 16 15 16 16 16 17 16 17 18 18 19 20 20 19 18 20 20 19 16 15 15 15 15 14 14 14 14 14 15
22 23 23 22 26 25 16 17 17 13 14 15 14 14 15 15 15 15 16 16 16 18 18 17 19 19 19 20 19 18 20 20 19 17 17 17 17 15 15 15 15 16 16 16
21 18 21 19 20 15 15 14 12 13 14 14 14 14 14 15 15 15 15 17 17 19 18 18 19 20 21 21 21 20 20 20 19 19 19 18 17 16 15 17 17 17 17 17
21 19 20 19 14 16 14 13 13 13 13 12 12 13 14 15 15 16 16 18 19 20 20 22 22 22 22 22 21 23 23 22 20 20 20 19 18 18 17 17 17 17 18 18
18 17 19 19 15 16 13 13 11 11 12 13 13 14 13 15 15 16 16 17 18 19 22 22 21 21 22 23 23 25 24 23 18 21 20 19 19 19 18 17 18 17 18 17
18 17 16 15 11 13 11 12 13 13 12 13 13 13 15 14 14 15 16 16 18 19 21 22 21 22 22 24 24 25 25 23 21 22 21 21 21 21 20 19 18 13 13 13